Regional Weather Roundup
Issued by NWS Grand Forks, ND

Home | Current Version | Previous Version | Text Only | Print | Product List | Glossary On
Versions: 1 2 3 4 5 6 7 8 9 10 11 12 13 14 15 16 17 18 19 20 21 22 23 24 25 26 27 28 29 30 31 32 33 34 35 36 37 38 39 40 41 42 43 44 45 46 47 48 49 50
000
ASUS43 KFGF 022231
RWRFGF
PRAIRIE TO PINES  WEATHER ROUNDUP
NATIONAL WEATHER SERVICE EASTERN NORTH DAKOTA/GRAND FORKS ND
500 PM CDT SUN AUG 02 2015

 **SATELLITE DATA USED TO AUGMENT SKY COVER AT AUTOMATED STATIONS**
 *****  WEATHER ACROSS EASTERN NORTH DAKOTA  *****

CITY           SKY/WX    TMP DP  RH WIND       PRES   REMARKS
GRAND FORKS    MOSUNNY   77  45  32 NW18G25   29.82S
GRAND FRKS AFB SUNNY     76  48  37 NW14G23   29.83S
DEVILS LAKE    SUNNY     75  46  35 NW16G25   29.87S
FARGO          SUNNY     79  48  33 NW17G26   29.83S
WAHPETON ARPT  PTCLDY    79  45  29 N14G23    29.84R
$$

 ***** WEATHER ACROSS CENTRAL AND WESTERN NORTH DAKOTA  *****

CITY           SKY/WX    TMP DP  RH WIND       PRES   REMARKS
BISMARCK       SUNNY     80  52  37 NW16      29.93F
MINOT          PTSUNNY   79  49  34 NW14G22   29.93F
JAMESTOWN      SUNNY     76  53  44 N13       29.88F
MINOT AFB      NOT AVBL
GARRISON         N/A     77  51  40 NW13G23   29.95S
WILLISTON      SUNNY     81  47  30 NW13G20   29.98F
DICKINSON      SUNNY     82  46  28 N14       29.97F
HETTINGER      SUNNY     84  47  27 N13       29.99F
$$

 *****  OTHER AIRPORT OBSERVATIONS IN OUR AREA  *****

CITY           SKY/WX    TMP DP  RH WIND       PRES   REMARKS
WALHALLA       FAIR      75  48  38 MISG      29.82S
GRAFTON AIRPOR FAIR      77  48  36 NW16G28   29.82S
VALLEY CITY AR FAIR      75  48  38 N16G22    29.88S
CANDO          FAIR      75  46  35 NW17G25   29.89S
CAVALIER APRT  FAIR      75  46  35 NW14G22   29.81S
GWINNER        FAIR      79  55  44 N13G21    29.87S
SHEYENNE NWR     N/A     79  52  38 N12       29.95S
ROLLA          FAIR      70  46  43 NW21G26   29.91S
 ***** THE ABOVE OBSERVATIONS ARE NON NWS ARE NOT QUALITY
       CONTROLLED AND MAY MIS-REPORT RAIN FOR SNOW...
$$

  *****  WEATHER ACROSS NORTHERN MINNESOTA  *****

CITY           SKY/WX    TMP DP  RH WIND       PRES   REMARKS
FLAG ISLAND    MOSUNNY   70  46  43 NW20      29.73S
WARROAD        MOSUNNY   72  50  46 W17G23    29.76R
ROSEAU         SUNNY     72  45  37 NW20G25   29.78R
HALLOCK        SUNNY     75  41  29 NW17      29.80S
THF RVR FALLS  MOSUNNY   73  46  38 NW18G24   29.82R
BAUDETTE       SUNNY     71  45  39 NW16G26   29.74S
WASKISH        PTSUNNY   72  50  46 W20G25    29.76R
CROOKSTON      MOSUNNY   75  48  38 NW17G24   29.83R
STEPHEN NDAWN    N/A     75  48  38 N14         N/A
GREENBUSH NDAW   N/A     75  43  31 NW15        N/A
$$
  *****  WEATHER ACROSS CENTRAL AND WEST MINNESOTA  *****

CITY           SKY/WX    TMP DP  RH WIND       PRES   REMARKS
FOSSTON        SUNNY     75  45  33 NW12G22   29.83R
BEMIDJI        MOSUNNY   72  46  39 NW21G26   29.79S
PARK RAPIDS    SUNNY     76  48  37 NW18G30   29.80S
ELBOW LAKE     FAIR      74  56  52 N16G22    29.83S
WADENA         SUNNY     73  50  43 NW14G25   29.81S
DETROIT LAKES  SUNNY     72  50  46 NW17G23   29.84S
MOORHEAD       SUNNY     75  52  43 N13G20    29.84S
FERGUS FALLS   SUNNY     75  54  46 N16G25    29.82S
MORRIS MN      MOSUNNY   79  59  50 N16G22    29.82R
STAPLES        SUNNY     75  46  35 NW21      29.80R
$$
  *****  WEATHER ELSEWHERE ACROSS MINNESOTA  *****

CITY           SKY/WX    TMP DP  RH WIND       PRES   REMARKS
DULUTH         MOSUNNY   75  53  46 NW18G26   29.69S
INTRNTL FALLS  MOSUNNY   72  45  37 W16G28    29.71S
ELY            MOSUNNY   72  45  37 NW10G22   29.69R
CLOQUET        SUNNY     75  45  33 W23G30    29.70S
WHEATON        MOSUNNY   75  55  50 NW10G22   29.85S
BRAINERD       MOSUNNY   78  50  37 NW16G25   29.77R
HIBBING        MOSUNNY   71  46  40 NW21G29   29.72R
ALEXANDRIA     MOSUNNY   77  54  44 NW15G26   29.83S
SAINT CLOUD    SUNNY     80  56  43 NW18G30   29.75R
MINNEAPOLIS    MOSUNNY   84  60  44 NW16G32   29.71R
$$

  *****  WEATHER ACROSS SOUTH DAKOTA  *****

CITY           SKY/WX    TMP DP  RH WIND       PRES   REMARKS
SIOUX FALLS    SUNNY     85  62  46 NW10      29.84S
BROOKINGS      SUNNY     79  57  47 N15       29.88R
WATERTOWN      SUNNY     78  57  48 N14G23    29.88R
HURON          SUNNY     83  59  44 N14G21    29.86S
SISSETON         N/A     79  57  46 N14       29.83F
ABERDEEN       SUNNY     81  56  42 N9        29.88S
MITCHELL       SUNNY     84  59  42 N13G20    29.86F
PIERRE         SUNNY     89  52  28 N9        29.89F
MOBRIDGE       SUNNY     84  56  38 N14       29.90F
RAPID CITY     SUNNY     86  53  32 NE5       29.99F
$$

  *****  SOME WEATHER IN NEARBY STATES *****

CITY           SKY/WX    TMP DP  RH WIND       PRES   REMARKS
GLASGOW MT     SUNNY     83  48  29 MISG      29.99F
GREAT FALLS MT MOSUNNY   84  48  28 SE6       30.01F
CHEYENNE WY    MOSUNNY   87  41  19 SE8       30.13F
SCOTTSBLUFF NE PTSUNNY   91  51  25 NE8       29.96F
OMAHA NE       MOSUNNY   95  72  47 W12       29.78R HX 103
DES MOINES IA  MOSUNNY   93  73  52 W16       29.75S THUNDER HX 102
DAVENPORT IA   SUNNY     89  73  59 SW15G26   29.74F HX  97
CHICAGO IL     MOSUNNY   89  69  51 SW23G35   29.68F HX  93
EAU CLAIRE WI  MOSUNNY   81  59  47 NW15      29.66R
LA CROSSE WI   MOSUNNY   90  67  46 NW15      29.64R HX  93
$$

  *****  SOME NATIONAL WEATHER *****

CITY           SKY/WX    TMP DP  RH WIND       PRES   REMARKS
LA GUARDIA NY  MOSUNNY   85  58  39 S14G22    29.87F
RALEIGH NC     MOSUNNY   88  58  36 N6        29.94F
ATLANTA GA     MOSUNNY   94  60  32 NE5       29.89F HX  94
NEW ORLEANS LA MOSUNNY   94  59  31 NW9       29.86F HX  93
OKLAHOMA CITY  PTSUNNY   88  65  46 S12       29.92F HX  90
ALBUQUERQUE NM CLOUDY    80  55  42 NW15      30.13R
SALT LAKE CITY CLOUDY    90  34  13 S10       29.97R THUNDER
LOS ANGELES CA MOSUNNY   75  65  70 W12       29.88F
BOISE ID       MOSUNNY  100  40  12 W7        29.84F HX  95
SEATTLE WA     PTSUNNY   81  53  37 SW5       29.94F
$$

*** WEATHER ACROSS MANITOBA...SASKATCHEWAN AND ONTARIO ***
                ***ONTARIO***

CITY           SKY/WX    TMP DP  RH WIND       PRES   REMARKS
GERALDTON      MOSUNNY   68  46  45 W8G20     29.53S
THUNDER BAY    PTSUNNY   73  45  35 NW14G22   29.57S
SIOUX LOOKOUT  CLOUDY    63  50  63 NW13G24   29.65R
TORONTO        TSTM      66  61  82 SW14G28   29.73F
BIG TROUT LK   CLOUDY    54  50  87 NW15      29.53R
PICKLE LAKE    CLOUDY    57  50  77 W13G26    29.58R
DRYDEN         CLOUDY    61  52  72 W12G20    29.69R
KENORA         PTSUNNY   66  45  45 NW16G29   29.73S
$$
                *** MANITOBA***

CITY           SKY/WX    TMP DP  RH WIND       PRES   REMARKS
BRANDON        SUNNY     75  46  35 NW18G30   29.88S
DAUPHIN        SUNNY     75  41  29 NW16G26   29.83S
ISLAND LAKE    CLOUDY    55  52  88 NW14G29   29.66R
PILOT MOUND      N/A     72  43  35 NW17G25     N/A
THE PAS        PTSUNNY   66  50  55 N17G24    29.85R
THOMPSON       LGT RAIN  57  50  77 N15G23    29.75R
WINNIPEG       MOSUNNY   73  45  35 NW24G32   29.79S
LYNN LAKE      CLOUDY    61  48  63 NW12G20   29.85S
CHURCHILL      LGT RAIN  46  46 100 N21G28    29.69R FOG
GILLAM         DRZL/FOG  52  50  93 N20G26    29.65R VSB 1
$$
                ***SASKATCHEWAN***

CITY           SKY/WX    TMP DP  RH WIND       PRES   REMARKS
ESTEVAN        MOSUNNY   79  48  34 N18G25    29.97S
KINDERSLEY     MOSUNNY   79  48  34 N7        30.01F
LLOYDMINSTER   PTSUNNY   75  45  33 NW5       30.02F
PRINCE ALBERT  MOSUNNY   75  52  43 NW14G23   29.95F
REGINA         MOSUNNY   77  48  36 NW15G23   30.00F
YORKTON        SUNNY     73  46  38 NW18G25   29.92F
N. BATTLEFORD  MOSUNNY   73  48  40 NW7       30.02F
LA RONGE       SUNNY     75  39  27 NW13G22   29.92F
SASKATOON      MOSUNNY   77  48  36 N10       30.00F
SWIFT CURRENT  SUNNY     75  48  38 W5        30.04F
$$
NOTE: THESE ARE AUTOMATED STATIONS WITH LIMITED QUALITY CONTROL
      "FAIR" INDICATES FEW OR NO CLOUDS BELOW 12,000 FEET WITH NO
      SIGNIFICANT WEATHER AND/OR OBSTRUCTIONS TO VISIBILITY.
      SKY/WX - SKY CONDITION AND SIGNIFICANT WEATHER.
      TMP - AIR TEMPERATURE.    DP   - DEWPOINT TEMPERATURE.
      RH  - RELATIVE HUMIDITY.  PRES - PRESSURE.
      HX  - HEAT INDEX.         WCI  - WIND CHILL INDEX.
$


USA.gov is the U.S. government's official web portal to all federal, state and local government web resources and services.